Location: Aldenham
(51.6667°N, 0.3500°W)
Time: 21:34:15
(UTC+00:00)

Vanguard 2 Rocket - Pass Details

Date: 20 February 2026
Orbit: 553 x 3286 km, 32.9° (Epoch: 8 March)

Event Time Altitude Azimuth Distance (km) Brightness Sun altitude
Rises 11:19:46 0° 220° (SW) 7,217 12.0 26.4°
Reaches altitude 10° 11:25:36 10° 211° (SSW) 6,226 11.9 26.6°
Maximum altitude 11:40:50 30° 160° (SSE) 4,344 12.9 27.1°
Drops below altitude 10° 11:52:53 10° 108° (ESE) 4,923 11.0 27.3°
Sets 11:56:46 0° 98° (E) 5,559 11.1 27.4°
